{"data":{"norad_id":57377,"epoch":"2026-05-25T02:16:33.439872Z","epoch_age_seconds":66833,"freshness":"FRESH","line1":"1 57377U 23099BB  26145.09483148  .00000620  00000+0  39214-4 0  9997","line2":"2 57377  43.0017 172.8166 0001553 274.4511  85.6160 15.20045736157850","mean_motion":15.20045736,"eccentricity":0.0001553,"inclination_deg":43.0017,"raan_deg":172.8166,"arg_perigee_deg":274.4511,"mean_anomaly_deg":85.616,"bstar":3.9214e-5,"rev_number":15785,"period_min":94.733991609316,"perigee_km":504.63346675042,"apogee_km":506.77158730751,"semimajor_km":6883.839527029,"source":"CELESTRAK","updated_at":"2026-05-25T13:38:18.296405Z"}}